Latest Weather Observations for Point Wilson

IDV60801

Issued at 9:31 pm EST Sunday 26 April 2015 (issued every 30 minutes, with the page automatically refreshed every 10 minutes)

About weather observations | Map of weather stations | Latest weather observations for VIC | Other Formats
Station Details ID: 087166 Name: POINT WILSON Lat: -38.10 Lon: 144.54 Height: 18.0 m
Data from the previous 72 hours. | See also: Recent months at Point Wilson
Date/Time
EST
Temp
°C
App
Temp
°C
Dew
Point
Rel
Hum
%
Delta-T
°C
Wind Press
QNH
hPa
Press
MSL
hPa
Rain
since 9 am
mm
Dir
 
Spd
km/h
Gust
km/h
Spd
kts
Gust
kts
26/09:30pm - - - - - W 32 35 17 19 - - -
26/09:00pm - - - - - WSW 30 37 16 20 - - -
26/08:30pm - - - - - W 30 37 16 20 - - -
26/08:00pm - - - - - WSW 32 39 17 21 - - -
26/07:30pm - - - - - W 33 41 18 22 - - -
26/07:00pm - - - - - W 33 41 18 22 - - -
26/06:30pm - - - - - WSW 30 39 16 21 - - -
26/06:00pm - - - - - WSW 32 35 17 19 - - -
26/05:30pm - - - - - WSW 30 37 16 20 - - -
26/05:00pm - - - - - WSW 30 35 16 19 - - -
26/04:30pm - - - - - SW 30 35 16 19 - - -
26/04:00pm - - - - - SW 33 39 18 21 - - -
26/03:30pm - - - - - SW 33 41 18 22 - - -
26/03:00pm - - - - - SW 33 39 18 21 - - -
26/02:30pm - - - - - SSW 37 41 20 22 - - -
26/02:00pm - - - - - SW 30 35 16 19 - - -
26/01:30pm - - - - - SW 33 39 18 21 - - -
26/01:00pm - - - - - SSW 30 35 16 19 - - -
26/12:30pm - - - - - SSW 17 22 9 12 - - -
26/12:00pm - - - - - SW 35 41 19 22 - - -
26/11:30am - - - - - WSW 30 35 16 19 - - -
26/11:00am - - - - - WSW 28 35 15 19 - - -
26/10:30am - - - - - WSW 30 35 16 19 - - -
26/10:00am - - - - - SW 30 35 16 19 - - -
26/09:30am - - - - - WSW 26 35 14 19 - - -
26/09:00am - - - - - W 30 35 16 19 - - -
26/08:30am - - - - - WSW 28 32 15 17 - - -
26/08:00am - - - - - W 28 33 15 18 - - -
26/07:30am - - - - - WSW 32 37 17 20 - - -
26/07:00am - - - - - WSW 30 35 16 19 - - -
26/06:30am - - - - - SW 28 32 15 17 - - -
26/06:00am - - - - - WSW 37 44 20 24 - - -
26/05:30am - - - - - WSW 32 37 17 20 - - -
26/05:00am - - - - - WSW 32 39 17 21 - - -
26/04:30am - - - - - WSW 22 30 12 16 - - -
26/04:00am - - - - - WSW 30 35 16 19 - - -
26/03:30am - - - - - WSW 30 35 16 19 - - -
26/03:00am - - - - - WSW 24 33 13 18 - - -
26/02:30am - - - - - SW 33 43 18 23 - - -
26/02:00am - - - - - SW 32 41 17 22 - - -
26/01:30am - - - - - WSW 26 33 14 18 - - -
26/01:00am - - - - - WSW 24 30 13 16 - - -
26/12:30am - - - - - SSW 28 35 15 19 - - -
26/12:00am - - - - - SSW 30 37 16 20 - - -
 
Date/Time
EST
Temp
°C
App
Temp
°C
Dew
Point
Rel
Hum
%
Delta-T
°C
Wind Press
QNH
hPa
Press
MSL
hPa
Rain
since 9 am
mm
Dir
 
Spd
km/h
Gust
km/h
Spd
kts
Gust
kts
25/11:30pm - - - - - SW 32 35 17 19 - - -
25/11:00pm - - - - - SW 35 43 19 23 - - -
25/10:30pm - - - - - SW 33 39 18 21 - - -
25/10:00pm - - - - - SW 35 43 19 23 - - -
25/09:30pm - - - - - SSW 33 39 18 21 - - -
25/09:00pm - - - - - SSW 33 39 18 21 - - -
25/08:30pm - - - - - SSW 37 44 20 24 - - -
25/08:00pm - - - - - SSW 41 46 22 25 - - -
25/07:30pm - - - - - SSW 39 46 21 25 - - -
25/07:00pm - - - - - SSW 41 48 22 26 - - -
25/06:30pm - - - - - SSW 37 43 20 23 - - -
25/06:00pm - - - - - SSW 37 48 20 26 - - -
25/05:30pm - - - - - SSW 35 44 19 24 - - -
25/05:00pm - - - - - SSW 35 41 19 22 - - -
25/04:30pm - - - - - S 33 39 18 21 - - -
25/04:00pm - - - - - SSW 32 41 17 22 - - -
25/03:30pm - - - - - SSW 26 33 14 18 - - -
25/03:00pm - - - - - S 28 35 15 19 - - -
25/02:30pm - - - - - S 20 26 11 14 - - -
25/02:00pm - - - - - SSE 11 17 6 9 - - -
25/01:30pm - - - - - WSW 11 15 6 8 - - -
25/01:00pm - - - - - W 20 24 11 13 - - -
25/12:30pm - - - - - WSW 20 24 11 13 - - -
25/12:00pm - - - - - WNW 20 24 11 13 - - -
25/11:30am - - - - - W 19 20 10 11 - - -
25/11:00am - - - - - WNW 20 22 11 12 - - -
25/10:30am - - - - - WNW 20 24 11 13 - - -
25/10:00am - - - - - WNW 20 24 11 13 - - -
25/09:30am - - - - - NW 19 20 10 11 - - -
25/09:00am - - - - - WSW 17 19 9 10 - - -
25/08:30am - - - - - SW 13 15 7 8 - - -
25/08:00am - - - - - WSW 15 19 8 10 - - -
25/07:30am - - - - - WSW 19 22 10 12 - - -
25/07:00am - - - - - WSW 24 30 13 16 - - -
25/06:30am - - - - - W 26 32 14 17 - - -
25/06:00am - - - - - W 28 30 15 16 - - -
25/05:30am - - - - - WNW 24 32 13 17 - - -
25/05:00am - - - - - WNW 22 28 12 15 - - -
25/04:30am - - - - - NW 22 26 12 14 - - -
25/04:00am - - - - - WNW 20 24 11 13 - - -
25/03:30am - - - - - WNW 20 28 11 15 - - -
25/03:00am - - - - - WNW 19 22 10 12 - - -
25/02:30am - - - - - WNW 19 22 10 12 - - -
25/02:00am - - - - - W 22 28 12 15 - - -
25/01:30am - - - - - WNW 22 28 12 15 - - -
25/01:00am - - - - - WNW 19 26 10 14 - - -
25/12:30am - - - - - W 15 19 8 10 - - -
25/12:00am - - - - - WSW 17 20 9 11 - - -
 
Date/Time
EST
Temp
°C
App
Temp
°C
Dew
Point
Rel
Hum
%
Delta-T
°C
Wind Press
QNH
hPa
Press
MSL
hPa
Rain
since 9 am
mm
Dir
 
Spd
km/h
Gust
km/h
Spd
kts
Gust
kts
24/11:30pm - - - - - WSW 20 24 11 13 - - -
24/11:00pm - - - - - WSW 19 22 10 12 - - -
24/10:30pm - - - - - W 20 26 11 14 - - -
24/10:00pm - - - - - WNW 20 24 11 13 - - -
24/09:30pm - - - - - W 28 32 15 17 - - -
24/09:00pm - - - - - W 28 33 15 18 - - -
24/08:37pm - - - - - W 28 39 15 21 - - -
24/08:30pm - - - - - CALM 0 6 0 3 - - -
24/08:00pm - - - - - SSE 9 11 5 6 - - -
24/07:30pm - - - - - SSE 13 15 7 8 - - -
24/07:00pm - - - - - S 17 19 9 10 - - -
24/06:30pm - - - - - WSW 11 19 6 10 - - -
24/06:00pm - - - - - CALM 0 0 0 0 - - -
24/05:30pm - - - - - CALM 0 0 0 0 - - -
24/05:00pm - - - - - WSW 7 9 4 5 - - -
24/04:30pm - - - - - WSW 9 11 5 6 - - -
24/04:00pm - - - - - WSW 9 11 5 6 - - -
24/03:30pm - - - - - WSW 13 13 7 7 - - -
24/03:00pm - - - - - W 17 20 9 11 - - -
24/02:30pm - - - - - W 17 20 9 11 - - -
24/02:00pm - - - - - WSW 19 24 10 13 - - -
24/01:30pm - - - - - WSW 20 28 11 15 - - -
24/01:00pm - - - - - WSW 20 24 11 13 - - -
24/12:30pm - - - - - W 24 26 13 14 - - -
24/12:00pm - - - - - W 24 28 13 15 - - -
24/11:30am - - - - - W 19 22 10 12 - - -
24/11:00am - - - - - NW 22 26 12 14 - - -
24/10:30am - - - - - W 17 19 9 10 - - -
24/10:00am - - - - - W 22 26 12 14 - - -
24/09:30am - - - - - W 28 32 15 17 - - -
24/09:00am - - - - - WNW 24 30 13 16 - - -
24/08:30am - - - - - W 24 30 13 16 - - -
24/08:00am - - - - - W 17 22 9 12 - - -
24/07:30am - - - - - WNW 20 28 11 15 - - -
24/07:00am - - - - - WNW 26 32 14 17 - - -
24/06:30am - - - - - WNW 19 20 10 11 - - -
24/06:00am - - - - - WNW 17 22 9 12 - - -
24/05:30am - - - - - WNW 11 13 6 7 - - -
24/05:00am - - - - - W 15 19 8 10 - - -
24/04:30am - - - - - W 15 19 8 10 - - -
24/04:00am - - - - - W 13 17 7 9 - - -
24/03:30am - - - - - WNW 13 15 7 8 - - -
24/03:00am - - - - - NW 9 11 5 6 - - -
24/02:30am - - - - - WNW 9 11 5 6 - - -
24/02:00am - - - - - CALM 0 0 0 0 - - -
24/01:30am - - - - - CALM 0 0 0 0 - - -
24/01:00am - - - - - ESE 2 6 1 3 - - -
24/12:30am - - - - - ESE 7 7 4 4 - - -
24/12:00am - - - - - ESE 9 11 5 6 - - -
 
Date/Time
EST
Temp
°C
App
Temp
°C
Dew
Point
Rel
Hum
%
Delta-T
°C
Wind Press
QNH
hPa
Press
MSL
hPa
Rain
since 9 am
mm
Dir
 
Spd
km/h
Gust
km/h
Spd
kts
Gust
kts
23/11:30pm - - - - - ESE 11 13 6 7 - - -
23/11:00pm - - - - - E 11 15 6 8 - - -
23/10:30pm - - - - - ESE 15 17 8 9 - - -
23/10:00pm - - - - - ESE 17 19 9 10 - - -

Other Formats:

Comma delimited format used in spreadsheet applications
http://www.bom.gov.au/fwo/IDV60801/IDV60801.94847.axf

JavaScript Object Notation format (JSON) in row-major order
http://www.bom.gov.au/fwo/IDV60801/IDV60801.94847.json